This is the latest recevied weather packets stored in our database for station/object W9WRP. If no packets are shown the sender has not sent any weather packets the latest 1 day(s).
| Time | Temp. | Humidity | Pressure | Rain* | Wind** | Luminosity | Snow |
|---|---|---|---|---|---|---|---|
| 1777983145 | 15° C | 58% | 1013.1 hPa | 0 mm | 0 m/s | 0 W/m² | - |
| 1777982841 | 15° C | 58% | 1012.9 hPa | 0 mm | 0 m/s | 0 W/m² | - |
| 1777982537 | 15° C | 58% | 1012.7 hPa | 0 mm | 0 m/s | 0 W/m² | - |
| 1777982236 | 15° C | 59% | 1013.1 hPa | 0 mm | 0 m/s | 0 W/m² | - |
| 1777981934 | 14.44° C | 59% | 1012.9 hPa | 0 mm | 0 m/s | 0 W/m² | - |
| 1777981631 | 15° C | 58% | 1012.9 hPa | 0 mm | 0 m/s | 0 W/m² | - |
| 1777981327 | 15.56° C | 56% | 1012.7 hPa | 0 mm | 0 m/s | 0 W/m² | - |
| 1777981024 | 15.56° C | 55% | 1012.8 hPa | 0 mm | 0 m/s | 0 W/m² | - |
| 1777980720 | 16.11° C | 54% | 1012.7 hPa | 0 mm | 0 m/s | 0 W/m² | - |
| 1777980417 | 16.11° C | 54% | 1012.7 hPa | 0 mm | 0 m/s | 0 W/m² | - |
| 1777980115 | 16.11° C | 54% | 1012.5 hPa | 0 mm | 0 m/s | 0 W/m² | - |
| 1777979814 | 16.11° C | 54% | 1012.5 hPa | 0 mm | 0 m/s | 0 W/m² | - |
| 1777979510 | 16.67° C | 53% | 1012.4 hPa | 0 mm | 0 m/s | 0 W/m² | - |
| 1777979206 | 16.67° C | 53% | 1012.5 hPa | 0 mm | 0 m/s | 0 W/m² | - |
| 1777978904 | 16.67° C | 52% | 1012.7 hPa | 0 mm | 0 m/s | 0 W/m² | - |
| 1777978600 | 16.67° C | 53% | 1012.8 hPa | 0 mm | 0 m/s | 0 W/m² | - |
| 1777978296 | 16.67° C | 54% | 1012.8 hPa | 0 mm | 0 m/s | 0 W/m² | - |
| 1777977993 | 16.11° C | 54% | 1012.7 hPa | 0 mm | 0 m/s | 0 W/m² | - |
| 1777977691 | 16.67° C | 54% | 1012.9 hPa | 0 mm | 0 m/s | 0 W/m² | - |
| 1777977387 | 16.67° C | 53% | 1012.8 hPa | 0 mm | 0 m/s | 0 W/m² | - |
| 1777977085 | 16.67° C | 53% | 1012.7 hPa | 0 mm | 0 m/s | 0 W/m² | - |
| 1777976782 | 17.22° C | 51% | 1012.7 hPa | 0 mm | 0 m/s | 0 W/m² | - |
| 1777976480 | 17.22° C | 51% | 1012.9 hPa | 0 mm | 0 m/s | 0 W/m² | - |
| 1777976178 | 17.22° C | 51% | 1012.9 hPa | 0 mm | 0 m/s | 0 W/m² | - |
| 1777975874 | 17.78° C | 50% | 1013.1 hPa | 0 mm | 0 m/s | 0 W/m² | - |
* Rain latest hour (hover to see other rain measurements)
** Current wind speed in m/s (hover to see current wind gust speed)